Location: Shenandoah County Park
(38.9356°N, 78.4524°W)
Time: 09:41:42
(UTC-04:00)

Vanguard 1 Rocket - Pass Details

Date: 16 February 2023
Orbit: 652 x 4223 km, 34.3° (Epoch: 24 March)

Event Time Altitude Azimuth Distance (km) Brightness Sun altitude
Rises 09:11:04 0° 236° (SW) 3,064 9.9 21.3°
Reaches altitude 10° 09:13:10 10° 228° (SW) 2,278 9.4 21.6°
Maximum altitude 09:17:59 43° 157° (SSE) 1,354 9.5 22.3°
Drops below altitude 10° 09:25:49 10° 89° (E) 3,689 11.4 23.5°
Sets 09:30:10 0° 84° (E) 5,246 11.9 24.1°
